This demonstration page uses our WeatherBlox Daily Observations layout. Learn more.

Left ArrowRight Arrow

39.08367, -84.50855

Hourly Observations for November 14, 2022

Temp ( °F °C ) Dew Point ( °F °C ) Humidity (%) Winds ( mph kmh ) Pressure ( in mb ) Visibility ( mi km ) Precip ( " mm )
12:53 am 00:53 Cloudy 36 2.2 29 -1.7 75 75 Calm 30.36 1028 10 16 0.00 0.00
1:53 am 01:53 Cloudy 36 2.2 29 -1.7 75 75 Calm 30.35 1028 10 16 0.00 0.00
2:53 am 02:53 Cloudy 36 2.2 30 -1.1 79 79 Calm 30.37 1028 10 16 0.00 0.00
3:53 am 03:53 Cloudy 35 1.7 31 -0.6 85 85 Calm 30.38 1029 10 16 0.00 0.00
4:53 am 04:53 Clear 32 0 29 -1.7 88 88 Calm 30.38 1029 9 14 0.00 0.00
5:53 am 05:53 Clear with Mist and Fog 29 -1.7 28 -2.2 96 96 ENE 3 6 30.40 1029 6 10 0.00 0.00
6:53 am 06:53 Clear 29 -1.7 27 -2.8 92 92 Calm 30.41 1030 10 16 0.00 0.00
7:53 am 07:53 Sunny 30 -1.1 29 -1.7 96 96 Calm 30.42 1030 10 16 0.00 0.00
8:53 am 08:53 Sunny 34 1.1 31 -0.6 88 88 NE 5 7 30.42 1030 10 16 0.00 0.00
9:53 am 09:53 Sunny 38 3.3 27 -2.8 64 64 ENE 8 13 30.41 1030 10 16 0.00 0.00
10:53 am 10:53 Mostly Cloudy 40 4.4 26 -3.3 57 57 NE 6 9 30.41 1030 10 16 0.00 0.00
11:53 am 11:53 Mostly Cloudy 40 4.4 24 -4.4 53 53 ESE 5 7 30.39 1029 10 16 0.00 0.00
12:53 pm 12:53 Partly Cloudy 44 6.7 26 -3.3 49 49 SE 10 17 30.35 1028 10 16 0.00 0.00
1:53 pm 13:53 Mostly Sunny 43 6.1 26 -3.3 51 51 VRB 5 7 30.32 1027 10 16 0.00 0.00
2:53 pm 14:53 Mostly Cloudy 44 6.7 27 -2.8 51 51 NE 8 13 30.31 1026 10 16 0.00 0.00
3:53 pm 15:53 Sunny 44 6.7 25 -3.9 47 47 SE 8 13 30.31 1026 10 16 0.00 0.00
4:53 pm 16:53 Sunny 42 5.6 25 -3.9 50 50 E 6 9 30.32 1027 10 16 0.00 0.00
5:53 pm 17:53 Clear 39 3.9 26 -3.3 59 59 E 5 7 30.30 1026 10 16 0.00 0.00
6:53 pm 18:53 Clear 34 1.1 28 -2.2 79 79 Calm 30.30 1026 10 16 0.00 0.00
7:53 pm 19:53 Clear 33 0.6 28 -2.2 81 81 NE 6 9 30.29 1026 10 16 0.00 0.00
8:53 pm 20:53 Clear 33 0.6 26 -3.3 75 75 NE 5 7 30.28 1026 10 16 0.00 0.00
9:53 pm 21:53 Clear 32 0 26 -3.3 78 78 ENE 3 6 30.27 1025 10 16 0.00 0.00
10:53 pm 22:53 Clear 34 1.1 27 -2.8 75 75 NE 5 7 30.28 1025 10 16 0.00 0.00
11:53 pm 23:53 Clear 34 1.1 27 -2.8 75 75 NE 6 9 30.25 1024 10 16 0.00 0.00

Powered by AerisWeather